GFSNW_500_rhum_000.txt.gz
RH
3 2 2 2 3 5 5 4 4 4 5 5 4 2 1 11 16 26 28 25 24 26 27 31 34 34 28 30 33 37 44 44 45 44 44 45 48 48 48 49 46 52 58 60
8 2 3 3 3 4 4 4 4 5 5 4 3 2 15 21 21 26 23 20 22 24 25 24 31 34 34 35 36 37 39 41 41 39 37 39 46 53 52 52 52 60 57 67
21 4 3 3 3 3 3 3 4 4 4 3 4 14 24 22 26 24 18 12 15 18 22 33 29 33 32 29 33 33 38 45 48 49 48 46 52 57 56 58 62 63 72 67
26 15 3 3 3 3 3 3 3 3 3 5 12 22 28 28 26 19 11 12 14 18 24 22 22 18 17 21 24 27 37 47 43 45 46 44 47 61 58 62 67 73 84 82
26 25 10 4 3 3 3 3 3 3 6 10 13 25 30 21 13 11 12 13 16 18 18 18 15 17 17 18 23 26 28 34 36 38 41 44 43 57 67 66 79 82 87 88
24 22 19 10 5 3 3 4 6 6 8 10 14 23 22 13 11 13 14 15 17 17 16 14 16 18 17 17 22 25 30 37 39 34 39 43 50 49 53 67 75 79 81 75
23 21 20 16 12 8 7 8 10 10 12 10 15 17 15 12 12 14 14 16 16 18 17 17 18 17 17 20 23 29 42 41 36 33 41 40 48 51 56 63 71 72 70 64
24 23 20 16 11 10 10 12 10 10 10 10 12 13 14 13 13 13 14 15 16 17 18 17 18 19 21 22 26 36 43 37 33 36 38 42 51 45 54 56 59 53 59 54
28 24 21 17 14 13 12 13 13 14 15 15 14 14 14 14 13 14 14 15 16 18 19 20 21 22 23 23 27 40 36 36 37 39 48 52 58 50 50 49 50 54 56 54
29 25 24 20 16 14 13 13 15 16 17 19 15 14 15 14 15 16 17 19 21 23 23 23 24 24 24 23 28 33 34 38 43 49 56 56 67 62 54 56 59 59 59 63
31 28 23 21 20 18 18 16 14 15 18 19 18 18 18 18 18 20 21 22 23 23 23 24 24 24 23 20 23 29 36 46 51 52 63 64 73 61 64 62 62 63 64 71
39 32 26 20 18 19 20 20 18 16 16 16 17 17 18 18 19 20 21 20 21 21 22 23 22 22 18 14 15 32 52 56 57 65 73 83 74 71 73 66 65 67 77 80
36 40 33 26 22 19 18 18 19 19 18 18 18 17 17 16 16 17 17 18 20 21 22 22 21 19 13 17 32 49 64 63 57 64 83 72 76 77 81 80 85 88 89 82
26 41 44 37 32 25 20 18 18 17 17 17 18 18 17 17 17 17 18 19 21 22 23 22 20 16 17 36 51 62 81 66 73 75 84 80 86 86 88 85 84 83 83 84
24 35 47 48 43 38 34 28 21 18 19 16 16 16 16 16 18 19 21 22 25 28 27 24 22 22 38 45 51 82 87 84 79 82 79 77 76 80 88 91 92 88 77 66
26 27 33 45 54 54 52 48 39 32 24 21 20 21 20 20 21 23 27 31 35 33 28 26 26 33 50 45 52 91 92 90 83 80 77 79 81 83 85 86 78 71 69 70
50 38 38 41 44 52 58 50 58 57 51 42 33 27 24 23 24 29 37 43 41 36 31 29 32 48 60 63 78 100 87 86 83 79 82 80 75 81 83 80 76 74 73 70
86 54 51 48 49 49 44 48 61 66 65 58 48 39 40 46 46 48 48 42 35 32 37 45 52 58 70 80 100 100 96 90 90 83 81 86 88 88 84 79 78 72 65 60
100 92 68 71 52 41 46 59 67 66 60 50 41 43 44 45 49 44 40 48 56 58 60 75 88 86 91 100 100 99 93 94 95 94 93 91 92 86 81 74 67 64 56 33
100 100 99 84 83 87 79 90 66 56 58 41 32 33 33 27 30 48 77 82 83 81 83 90 76 68 94 100 99 92 92 96 94 94 92 84 75 71 71 70 62 44 20 12
100 99 100 98 100 100 100 100 89 68 59 59 46 46 50 52 51 56 70 84 83 90 83 85 72 71 94 97 95 94 95 96 94 86 77 74 75 73 67 55 31 14 12 15
98 99 100 100 100 100 100 100 99 90 82 64 67 82 91 85 87 97 100 100 98 89 79 78 69 77 92 96 95 97 99 92 84 79 76 78 74 63 44 23 12 14 17 17
100 100 100 100 100 100 100 95 88 85 72 72 83 90 94 97 100 100 100 100 100 100 89 78 84 97 98 98 100 98 92 83 76 77 77 68 52 31 15 17 20 18 18 18
100 100 100 100 100 100 100 99 92 94 99 100 98 98 96 100 100 100 100 100 100 97 94 99 99 97 100 100 94 91 85 77 76 71 58 40 20 14 20 24 22 19 18 19
100 100 100 100 100 100 100 100 100 100 100 100 100 100 100 100 100 100 100 100 99 98 100 95 94 93 89 84 84 84 80 75 63 46 28 22 23 22 23 23 22 20 22 26
100 100 100 100 100 100 100 100 100 100 100 100 100 100 100 100 100 98 99 100 100 100 94 89 87 87 89 92 87 78 69 52 33 22 24 24 24 25 22 22 23 26 31 30
96 100 100 100 100 100 100 100 100 100 100 100 100 100 100 100 100 100 100 100 96 94 93 91 89 95 91 83 73 50 34 29 25 23 27 29 29 26 25 25 27 35 35 37

GFSNW_500_rhum_006.txt.gz
RH
4 2 4 5 6 7 9 10 8 7 7 7 6 6 6 6 6 3 9 27 24 17 22 28 23 23 27 29 34 34 30 31 35 31 27 24 22 24 23 28 35 36 38 46
4 3 4 6 6 8 10 10 7 7 7 7 6 6 6 6 4 2 16 28 23 23 22 22 22 27 31 31 31 26 27 27 26 20 17 15 20 20 20 23 30 38 42 55
5 5 4 5 6 7 10 9 8 8 7 6 6 6 5 5 4 3 19 29 20 18 18 17 24 29 32 31 25 25 23 25 27 31 29 24 22 21 23 24 26 31 48 50
7 6 4 4 5 6 8 10 10 8 6 6 5 5 4 4 3 8 22 31 17 14 14 16 26 24 29 21 20 20 20 23 25 26 21 20 18 23 28 30 34 40 43 44
20 7 5 4 4 6 8 9 8 8 6 5 5 4 4 4 3 14 22 30 20 12 14 16 17 14 16 17 18 19 20 20 21 20 18 16 16 24 29 29 34 45 54 54
38 22 6 5 4 6 8 8 6 5 4 4 4 4 4 4 4 17 24 30 23 9 11 17 19 14 13 14 17 19 21 21 20 20 19 17 17 24 29 30 32 47 57 58
45 36 24 7 6 4 4 4 4 4 4 4 4 4 4 4 10 17 26 27 19 12 12 13 15 14 13 15 19 21 22 21 21 21 21 19 16 21 32 36 38 49 60 67
55 41 33 24 8 6 4 4 3 3 4 4 4 4 4 3 11 20 23 23 14 10 12 14 16 17 17 18 20 21 21 21 21 22 20 19 16 19 37 35 45 43 60 67
57 46 35 29 26 12 7 5 5 4 4 4 5 6 4 10 10 20 32 21 13 12 13 15 17 18 20 20 20 21 21 22 22 22 21 20 19 22 30 37 42 42 45 49
53 48 39 28 26 26 17 9 7 5 5 8 8 5 12 11 16 22 30 22 13 12 14 15 17 17 18 19 19 20 22 22 23 20 22 22 21 26 34 40 39 48 59 54
52 51 46 34 26 26 26 19 14 9 10 10 10 15 14 17 24 22 33 25 16 15 16 17 18 17 18 19 20 21 22 22 23 23 25 22 21 25 29 41 58 54 59 64
46 51 49 46 36 29 27 23 20 18 16 18 20 24 28 26 23 20 30 24 20 17 17 17 17 18 19 20 22 23 24 24 22 22 26 26 26 26 30 56 65 71 72 72
46 48 50 47 39 36 32 32 25 23 24 26 22 23 30 31 28 25 24 24 19 19 17 19 18 19 21 22 22 25 24 31 25 25 27 29 28 32 44 59 71 81 83 74
38 45 47 46 42 37 35 36 34 27 30 26 30 29 28 34 35 31 24 22 22 19 19 19 19 20 21 20 23 20 24 32 33 29 30 29 41 58 71 73 89 89 85 75
27 28 30 42 47 41 37 37 34 32 34 31 30 29 34 29 35 36 31 28 26 22 22 22 24 23 26 20 20 21 38 38 37 32 31 40 54 66 72 91 96 90 80 78
26 25 23 24 32 45 44 33 30 34 30 30 28 31 31 27 27 26 30 31 30 29 26 25 23 25 26 20 20 23 37 38 36 36 42 57 74 88 87 90 86 79 78 84
39 30 23 21 21 22 34 41 48 45 37 28 25 22 27 31 32 31 34 30 30 30 33 23 23 25 26 23 22 43 46 45 44 59 61 57 76 96 91 86 84 82 83 85
97 66 45 41 32 25 20 26 48 63 61 43 31 21 24 32 27 29 35 29 35 28 31 28 37 41 45 38 50 51 49 55 61 60 72 88 94 97 93 84 84 81 83 92
96 100 95 94 88 53 33 29 38 47 57 55 41 35 35 43 42 59 68 64 62 55 48 53 52 44 37 45 41 39 48 62 63 75 92 99 98 88 81 84 81 82 89 94
93 93 87 82 79 58 49 47 40 33 39 22 22 27 35 47 52 58 63 58 52 39 34 44 39 26 29 34 39 49 69 91 97 95 93 90 82 77 78 76 80 88 91 96
93 86 86 84 91 100 94 95 96 70 51 45 29 18 19 20 31 45 56 48 53 54 48 48 36 33 55 79 97 100 100 100 97 91 86 82 84 85 82 88 92 99 100 95
100 84 88 99 100 100 100 98 91 76 69 59 62 68 63 68 76 85 89 93 97 86 79 78 59 61 59 73 86 83 83 98 100 96 85 92 99 98 98 100 100 100 95 80
88 99 100 100 100 100 100 90 63 68 65 59 61 73 86 96 100 100 100 100 99 93 84 71 70 74 81 91 94 86 81 96 98 100 100 100 100 100 100 100 100 91 79 49
69 98 100 100 100 98 100 90 72 64 63 68 75 85 100 100 100 100 100 100 99 100 88 83 95 98 99 97 96 94 100 100 100 100 100 99 100 100 100 99 86 61 35 24
63 82 100 100 100 100 100 100 100 93 84 86 89 86 100 100 100 100 100 100 100 100 100 100 100 100 100 100 100 100 100 100 100 99 98 98 100 100 95 66 44 30 25 22
18 31 70 100 100 100 100 100 100 100 100 100 99 100 99 99 99 100 100 100 100 100 100 100 100 100 100 100 100 100 100 100 99 99 98 97 92 70 45 30 27 26 24 21
4 4 7 19 83 100 100 100 100 100 100 100 100 100 100 100 100 100 100 100 100 100 100 100 100 100 100 100 100 100 100 99 99 94 78 53 39 33 31 29 27 26 25 25

GFSNW_500_rhum_009.txt.gz
RH
8 3 4 6 7 8 10 11 10 8 8 8 8 8 8 6 7 6 3 11 30 21 18 16 18 25 23 21 27 33 31 30 33 25 23 17 17 18 19 23 23 22 24 45
6 2 4 6 6 8 8 10 10 9 8 7 8 6 6 6 6 5 3 18 26 18 16 18 18 18 24 30 31 27 26 27 24 25 21 21 17 15 17 21 23 24 26 38
6 2 4 5 6 6 8 9 9 8 8 8 6 6 6 6 5 5 3 19 25 20 21 19 22 22 29 29 27 25 24 23 23 21 18 16 15 14 14 16 22 23 26 27
6 4 4 6 5 6 7 9 10 9 8 6 6 6 6 6 5 4 4 16 26 16 14 15 18 24 25 29 24 23 19 20 20 20 18 17 17 16 15 15 22 25 27 30
8 6 4 6 6 6 8 9 10 9 8 9 8 6 5 5 4 5 4 16 27 21 10 10 14 18 19 25 18 18 18 19 20 20 20 20 19 19 17 15 21 27 29 34
10 7 5 5 6 7 7 9 10 9 8 8 7 6 5 5 4 5 5 12 20 23 18 14 17 24 18 16 15 17 17 20 21 21 21 21 21 20 19 18 19 24 28 29
13 10 7 5 5 6 6 7 9 10 9 8 8 6 5 5 4 4 4 5 18 32 29 14 14 16 17 15 13 14 16 20 21 21 21 20 19 19 19 19 20 23 30 30
46 15 10 7 5 5 5 5 6 8 8 8 7 5 5 4 4 4 3 12 28 33 31 18 14 15 17 17 15 16 18 20 20 20 21 21 20 19 20 20 21 26 33 37
57 46 35 19 7 5 4 4 5 7 8 7 6 5 4 4 4 4 6 13 21 33 32 20 13 15 15 17 18 19 20 20 20 20 21 20 18 16 18 20 21 26 29 40
74 56 44 34 18 8 6 5 5 6 5 5 4 3 3 4 4 4 6 10 18 31 30 21 14 15 16 18 19 20 20 19 19 20 21 21 20 18 21 22 24 26 31 46
76 70 54 41 35 28 14 6 5 4 4 4 4 4 4 4 4 6 11 13 22 36 37 27 16 16 17 16 17 19 19 19 20 21 21 20 19 19 23 26 26 28 41 47
70 70 62 52 40 31 28 23 13 7 7 7 6 6 6 5 5 8 16 18 32 33 43 34 21 18 18 18 17 18 18 21 22 23 22 23 23 24 32 28 30 36 45 50
53 61 59 53 46 35 30 28 25 21 14 10 8 9 14 22 15 14 23 25 35 34 36 36 28 20 19 18 18 20 20 21 21 22 24 29 46 36 34 32 34 48 51 58
43 51 52 49 49 43 35 30 28 27 26 21 18 15 19 21 19 19 32 40 32 30 38 34 30 27 21 19 19 19 25 27 31 25 27 30 34 34 36 40 54 50 55 79
34 45 53 55 52 49 46 35 24 27 28 26 26 25 31 31 30 32 36 39 41 38 34 32 33 28 28 20 20 21 35 31 30 25 40 47 41 44 45 62 56 62 82 88
23 25 33 46 49 47 45 41 37 30 29 29 27 33 34 33 34 35 35 37 36 38 41 37 31 37 39 23 19 22 28 38 43 68 70 54 50 47 66 71 77 82 92 89
20 19 23 28 29 31 36 41 47 47 39 31 28 26 30 41 40 36 44 45 44 39 31 25 31 34 31 21 20 30 52 63 59 51 52 47 45 66 67 72 86 94 94 82
25 22 24 25 25 25 23 25 29 36 38 39 27 21 28 36 33 35 42 72 100 94 57 29 32 30 31 20 39 48 49 50 46 37 34 31 38 59 78 81 82 87 82 77
71 86 95 56 24 25 24 24 24 24 22 23 27 31 37 46 46 58 68 73 75 58 48 52 51 38 35 46 42 39 38 50 52 52 58 72 85 88 92 95 97 94 92 94
100 100 95 91 84 59 47 45 64 62 46 30 20 22 22 35 45 56 68 72 67 55 49 54 42 30 25 44 66 60 62 72 83 80 97 100 93 86 90 100 100 100 100 96
100 94 88 96 100 99 96 90 78 64 44 39 37 40 39 33 34 43 57 46 40 30 26 34 21 18 52 67 76 83 87 85 85 100 100 100 97 97 93 95 100 100 100 100
81 81 97 100 100 100 100 79 75 75 70 58 59 64 81 86 98 100 99 99 90 82 80 81 63 61 64 66 70 72 77 85 99 100 100 100 100 99 100 100 100 100 100 100
80 72 73 91 100 100 92 77 70 59 55 56 64 78 94 96 100 100 100 100 92 84 82 78 71 70 71 75 77 73 74 81 85 87 97 100 100 100 100 100 100 99 100 99
53 57 46 65 97 98 95 73 68 59 60 72 76 80 82 88 96 100 100 100 98 95 84 78 86 89 90 82 81 81 79 80 85 100 100 100 100 100 100 100 100 97 90 59
49 34 43 50 72 98 98 96 94 87 85 78 73 70 74 80 99 100 100 100 100 100 100 98 96 94 96 90 86 93 98 100 100 100 100 100 100 100 100 100 89 64 42 32
45 65 71 63 65 89 100 100 100 99 98 98 100 100 98 98 98 100 100 100 100 100 99 98 99 100 100 100 100 100 100 100 100 100 100 100 99 97 87 56 37 30 30 29
6 6 26 40 47 50 75 99 100 100 100 100 100 100 100 100 100 100 100 100 100 100 100 100 100 100 100 100 100 100 100 100 99 99 98 84 70 53 36 30 30 30 29 28

GFSNW_500_rhum_015.txt.gz
RH
60 17 16 39 15 7 8 12 16 16 12 8 8 14 13 12 12 10 8 6 11 28 23 13 10 12 14 22 17 23 27 29 31 28 21 17 18 15 13 13 13 14 15 16
65 15 26 33 9 7 8 13 18 16 11 6 8 9 10 11 15 9 7 5 21 29 23 19 16 15 22 20 20 28 30 30 30 27 22 21 20 15 14 15 16 16 16 16
54 17 32 22 7 8 9 15 18 15 10 6 7 8 10 10 10 8 6 5 22 23 20 19 18 20 25 18 24 30 28 30 32 26 25 24 19 17 17 16 17 17 18 16
32 27 34 14 7 8 8 13 17 14 8 7 8 8 9 10 10 7 5 4 9 25 22 21 21 24 24 24 29 32 28 27 26 26 25 23 20 18 18 19 19 19 18 17
29 38 30 11 6 8 9 13 17 14 11 11 8 8 9 8 8 6 5 5 5 28 26 25 21 26 25 29 32 33 28 28 26 22 20 20 21 21 21 21 21 21 20 17
37 41 23 9 7 8 10 14 16 15 11 9 8 9 9 8 7 6 5 5 5 9 32 25 22 23 24 29 31 34 31 26 23 19 19 19 19 21 21 22 21 22 21 19
39 41 15 8 7 8 11 14 16 15 12 10 10 10 9 8 8 7 5 5 5 5 13 26 29 18 16 20 29 30 34 34 27 19 18 17 18 20 22 22 21 21 21 20
48 30 11 8 7 7 10 13 15 15 14 13 12 10 9 7 6 7 6 5 5 5 5 12 24 32 27 19 19 27 30 31 30 25 19 17 17 21 23 23 22 22 23 23
50 16 11 8 7 7 9 10 12 13 13 14 12 10 9 9 8 8 7 6 5 5 4 4 6 12 22 29 26 20 22 28 31 28 26 21 21 23 24 24 21 22 24 23
39 14 12 8 7 7 8 9 10 10 10 10 10 10 10 8 8 8 8 7 6 5 4 5 5 6 8 14 22 30 26 23 25 29 25 19 24 24 25 23 23 23 25 24
31 16 13 10 8 8 8 9 8 9 10 10 9 10 11 10 10 9 8 8 7 6 5 5 5 6 7 9 12 24 31 27 24 24 24 18 23 22 24 24 24 25 26 24
94 26 15 12 9 8 8 8 8 7 7 8 8 9 11 11 10 9 9 8 8 6 5 4 4 5 6 10 13 26 34 50 44 37 30 27 26 24 23 23 24 27 26 26
67 85 80 43 13 9 8 8 8 7 7 7 7 8 8 8 7 6 7 8 8 6 5 5 6 7 11 15 16 23 36 50 43 41 40 36 30 29 27 27 30 29 27 33
86 66 46 42 42 22 15 10 8 7 7 7 7 7 6 6 6 6 6 7 7 6 6 7 8 12 16 18 19 20 34 46 48 36 42 38 35 35 37 32 28 28 36 43
88 76 66 58 50 42 34 27 16 10 9 7 7 6 6 6 6 6 6 6 7 9 10 13 18 16 17 12 12 16 38 59 54 44 44 34 33 35 34 37 41 41 43 44
100 98 87 78 65 56 48 39 33 29 27 22 19 19 18 19 20 21 22 23 23 21 19 18 17 23 23 13 14 28 54 50 46 36 40 38 38 46 52 50 47 42 45 58
90 92 97 96 87 78 72 69 66 60 50 43 41 37 32 26 26 28 30 31 31 30 29 27 28 33 33 24 24 74 83 75 70 62 59 55 65 58 48 42 59 75 71 74
54 58 60 64 64 64 55 52 51 44 39 37 31 32 41 44 43 41 41 39 36 33 36 37 47 37 42 30 68 73 69 62 62 70 63 59 48 37 46 83 78 77 76 83
29 30 31 29 27 27 34 38 38 34 31 24 21 26 33 37 41 45 48 47 43 39 35 48 48 37 32 54 55 55 58 51 42 36 34 49 66 64 68 89 96 97 97 78
90 80 56 35 33 35 31 31 31 30 26 19 17 20 20 28 29 29 31 33 30 25 26 30 24 22 27 34 35 57 78 82 70 68 82 80 80 87 96 100 100 100 94 100
85 85 78 58 42 41 42 52 57 51 42 33 26 24 25 26 31 55 81 75 59 46 42 49 54 51 61 70 80 82 81 84 86 88 84 80 82 95 98 98 93 99 100 100
63 49 49 45 42 39 44 44 42 36 28 29 49 46 39 52 79 97 88 81 70 63 66 70 54 50 62 73 73 75 76 82 86 85 84 84 95 96 84 97 100 100 100 100
72 73 79 81 71 58 54 45 42 55 74 81 92 98 100 100 100 100 99 98 92 86 78 68 58 61 66 69 72 72 72 71 69 70 69 68 80 99 100 100 100 100 100 100
100 100 100 100 83 75 70 75 80 78 81 85 90 100 99 100 100 100 99 100 99 92 79 67 68 73 74 70 70 71 69 70 71 73 79 96 100 100 100 100 100 100 100 100
98 100 100 89 87 84 82 81 82 80 83 86 88 92 90 87 88 86 88 92 88 83 79 79 76 73 85 87 83 77 73 76 88 100 100 100 100 100 100 100 100 100 100 100
100 98 98 96 98 100 100 98 96 95 95 90 88 89 88 86 83 75 73 78 75 86 95 97 92 86 85 95 98 99 99 97 99 98 98 100 100 100 100 100 100 98 96 94
91 96 100 100 98 98 100 100 100 97 94 94 94 91 96 97 98 99 100 100 100 100 100 100 100 100 100 100 100 100 100 100 100 100 100 100 100 100 100 93 88 77 55 37

GFSNW_500_rhum_021.txt.gz
RH
28 34 33 19 19 22 21 30 25 11 11 11 16 20 18 14 13 11 12 13 14 12 10 10 13 13 11 11 10 10 13 15 16 21 25 30 29 19 18 18 15 14 16 16
59 94 40 26 28 23 23 36 15 10 11 12 16 17 13 12 17 11 14 11 8 7 19 14 9 7 7 9 12 14 17 22 26 24 27 27 18 18 18 17 16 16 16 16
96 95 45 51 49 17 30 36 12 9 10 15 18 14 11 16 18 15 13 10 7 8 32 33 22 12 8 9 15 16 23 27 27 30 31 26 20 19 19 20 19 19 18 17
100 65 54 70 37 22 36 29 11 8 9 14 16 13 10 19 18 14 14 10 8 8 32 28 26 16 13 13 15 24 22 27 30 30 30 26 21 22 24 24 24 22 21 20
97 58 77 58 32 31 38 18 11 12 11 18 16 10 10 24 23 14 12 9 8 8 30 30 25 21 19 17 18 22 20 27 30 29 28 27 25 24 24 25 23 21 21 20
68 85 74 42 31 36 31 15 12 16 14 17 14 9 9 24 17 12 11 10 8 6 10 31 24 23 20 18 20 20 20 24 28 26 25 23 18 22 24 23 21 20 19 20
70 72 54 40 31 37 25 15 14 15 16 17 15 10 10 13 11 12 11 10 9 6 6 8 28 20 17 18 18 18 20 23 22 22 26 18 18 22 25 26 26 25 23 23
64 64 49 36 51 38 24 17 16 15 20 19 15 11 9 9 10 11 12 12 10 7 6 6 5 11 24 22 16 14 14 15 16 15 16 13 16 18 20 21 21 27 30 29
64 50 47 52 59 35 20 18 15 15 20 18 19 14 9 8 9 11 12 12 11 10 9 6 6 5 5 6 9 19 23 24 22 20 18 13 16 22 23 23 19 27 25 25
64 86 58 69 62 40 19 17 15 15 19 22 18 14 12 10 10 11 13 13 11 10 9 9 8 7 7 6 6 6 8 8 8 11 11 9 23 27 28 27 29 28 31 37
85 92 71 75 63 26 18 16 25 20 19 24 20 17 13 14 14 14 14 14 12 11 10 9 9 8 8 8 8 8 8 8 10 12 11 12 15 15 16 17 22 26 34 39
100 92 97 71 45 21 19 18 37 23 20 23 23 20 18 17 15 15 15 14 12 10 10 10 10 8 9 9 9 10 9 10 9 9 10 13 13 16 20 24 29 39 38 43
99 100 82 49 25 19 21 88 78 46 22 20 22 21 20 19 17 16 15 14 12 11 11 10 11 11 10 9 8 8 7 9 10 8 23 20 16 16 18 20 28 39 46 47
100 93 34 23 23 24 24 63 100 31 16 16 18 19 20 19 18 16 15 14 12 10 9 9 10 9 9 8 7 6 8 12 14 14 20 18 22 26 27 33 35 38 43 50
100 79 28 28 26 38 97 89 44 42 24 17 18 18 18 18 16 14 12 11 10 9 8 8 8 7 6 6 7 11 27 27 22 22 29 30 34 37 39 47 60 67 65 63
100 99 42 25 51 100 100 100 100 88 67 56 27 22 22 18 14 12 11 10 8 7 8 8 7 7 8 9 16 28 32 37 45 46 46 45 48 54 58 62 72 77 69 56
88 56 39 34 43 95 98 95 96 94 91 82 58 40 27 20 15 13 11 10 10 9 8 8 11 20 24 27 33 40 42 43 45 44 45 54 56 54 58 57 50 46 68 75
100 100 100 98 91 68 44 36 25 23 24 23 20 16 16 17 16 16 14 14 14 17 23 30 37 39 38 34 36 39 44 54 59 59 57 54 49 51 55 62 79 81 78 77
100 100 100 90 76 71 65 57 46 36 29 25 26 29 39 36 44 45 48 51 50 46 42 36 33 32 31 31 27 28 29 33 39 41 42 69 81 78 76 77 78 84 85 89
99 99 100 96 93 82 74 77 69 65 61 58 63 80 79 81 74 66 53 44 36 32 40 44 41 32 27 28 32 56 73 69 65 64 79 89 87 84 86 91 94 97 100 98
98 98 100 100 100 100 100 100 99 100 96 96 98 94 88 77 61 64 67 67 58 46 42 43 41 37 36 38 49 74 85 86 91 93 90 85 82 83 86 87 86 81 75 80
100 100 100 100 100 100 93 86 85 82 82 79 85 84 83 71 67 62 54 57 58 53 48 43 33 40 58 74 81 86 85 80 80 81 83 84 82 78 75 74 72 68 67 68
100 100 100 100 98 78 51 50 61 59 58 63 68 68 61 58 61 66 65 53 48 57 59 66 73 86 81 78 81 80 81 84 84 82 79 75 72 67 62 59 63 77 88 91
73 44 43 38 36 38 53 80 98 98 97 96 91 82 68 64 62 58 54 62 67 65 68 79 82 78 76 73 73 78 81 82 81 80 76 76 73 74 87 100 100 100 100 100
100 97 94 91 98 98 99 94 75 68 76 90 100 99 97 92 91 91 90 92 82 80 90 93 90 88 86 84 81 79 78 82 89 96 88 72 75 89 96 100 100 100 100 97
100 100 97 94 99 100 100 100 100 100 100 100 100 100 100 100 100 98 100 100 100 100 100 97 92 88 90 93 88 80 64 46 39 39 72 97 100 100 100 89 59 43 36 32
100 100 100 100 100 100 100 100 100 100 100 100 100 100 100 99 97 100 100 100 100 100 94 87 67 44 23 10 8 9 22 60 97 94 93 90 75 51 50 49 44 41 36 33

GFSNW_500_rhum_024.txt.gz
RH
1 1 1 1 1 6 17 23 20 22 28 22 9 10 12 18 21 16 14 12 12 11 12 13 14 13 13 12 11 9 9 9 10 13 13 14 19 23 29 18 19 16 14 15
1 1 1 1 1 3 16 20 20 24 26 19 8 11 16 22 19 14 12 12 13 14 13 11 10 10 11 10 11 10 9 10 12 13 14 22 25 29 20 18 19 14 15 17
1 2 31 1 3 17 30 25 23 27 25 15 10 15 20 20 15 13 12 14 12 8 7 11 19 11 8 7 7 8 13 15 20 24 22 25 29 20 16 17 18 17 17 20
60 77 38 27 42 46 27 26 22 25 22 12 11 21 22 16 12 13 14 14 11 7 10 28 32 29 18 9 8 12 14 19 25 26 26 29 29 20 17 17 18 20 24 23
96 98 76 99 100 64 24 26 22 29 22 11 15 21 20 12 14 16 16 15 10 7 10 30 27 25 21 14 13 15 19 23 24 27 28 27 28 25 22 22 24 24 25 22
94 100 84 100 97 43 32 24 28 31 20 11 17 18 17 11 19 18 15 12 10 7 8 27 32 24 21 19 17 16 21 20 22 25 27 24 20 24 26 25 25 26 25 26
82 59 73 99 84 50 44 39 34 25 18 13 18 22 16 11 18 22 14 13 10 8 6 8 30 28 23 20 18 18 18 18 18 22 24 19 23 26 28 25 27 28 28 30
81 55 100 95 64 65 40 40 35 23 21 16 21 23 16 11 19 32 14 13 11 10 8 6 7 12 29 24 19 18 19 19 17 15 17 14 17 16 18 19 21 23 22 22
100 100 95 73 70 54 40 41 35 24 22 15 23 25 15 11 20 20 12 12 12 11 11 10 7 6 6 7 12 19 22 23 21 19 13 8 12 13 14 12 12 15 17 22
100 96 82 80 60 43 49 45 35 27 21 22 24 22 15 10 14 14 13 12 14 13 11 10 10 9 8 8 8 7 7 7 6 7 7 6 8 8 8 10 12 9 10 14
93 83 69 51 39 49 53 39 35 23 20 23 25 25 18 11 11 12 12 14 14 14 13 11 10 9 10 9 9 10 9 9 9 9 9 10 10 8 8 8 7 9 14 16
76 59 49 43 49 57 65 34 35 28 20 20 26 27 24 17 16 15 14 14 15 14 12 12 12 10 10 11 11 11 10 10 9 9 8 9 7 6 7 7 9 13 16 21
54 48 50 54 64 56 58 36 38 31 19 20 25 27 26 21 18 17 14 13 14 14 14 14 12 10 11 11 11 11 10 10 9 8 9 8 7 8 11 16 20 25 29 34
75 72 63 70 66 70 93 39 32 74 57 27 23 28 27 25 22 19 17 17 16 16 15 14 12 10 10 10 10 9 8 8 7 7 10 12 19 22 26 32 39 41 42 49
91 83 83 85 83 84 39 26 62 100 98 69 35 26 27 27 24 22 20 19 18 17 16 14 12 11 10 9 8 8 9 8 8 13 20 25 35 42 43 41 41 46 49 51
98 100 97 69 71 27 76 98 76 95 96 90 69 29 27 25 24 24 22 21 19 17 15 13 11 10 9 7 8 9 15 19 22 29 38 40 37 37 41 45 50 50 45 43
96 56 38 33 25 35 67 90 100 100 100 56 34 29 24 22 21 21 21 20 19 17 14 12 10 10 9 8 9 19 33 41 38 37 36 36 39 37 38 38 36 46 81 80
92 57 54 56 51 94 100 100 100 90 69 63 43 29 27 26 27 27 27 24 20 16 12 11 11 11 14 16 35 45 45 47 39 34 27 28 35 43 46 48 62 80 78 75
99 99 91 97 100 100 100 100 100 100 100 100 96 88 72 51 42 33 26 20 16 13 13 19 22 27 35 41 39 41 41 36 30 29 42 66 69 66 70 77 79 82 82 83
97 89 82 88 100 99 93 84 74 68 55 50 35 29 24 25 27 29 24 25 26 23 34 43 42 37 42 48 44 38 38 37 36 40 55 75 84 86 87 85 83 82 80 77
100 92 97 98 88 92 82 73 56 46 39 40 46 51 54 66 61 72 69 60 60 51 46 49 47 49 55 58 54 46 40 44 61 81 90 92 91 88 86 84 84 85 82 75
100 100 100 98 88 76 72 68 74 77 81 92 97 94 97 99 99 87 69 63 60 54 57 51 44 55 61 72 81 87 85 85 86 84 82 84 86 89 89 86 79 74 69 58
98 94 92 97 100 100 100 100 100 100 100 100 96 90 86 83 81 80 64 50 43 47 52 56 54 65 80 82 78 82 85 84 86 89 90 88 82 76 72 70 61 35 48 74
100 100 100 99 97 90 92 96 96 92 87 85 88 86 84 84 80 74 73 71 70 64 59 64 88 90 90 85 89 94 92 90 87 84 81 76 59 29 10 8 20 42 71 91
100 97 98 98 97 82 58 52 51 55 72 91 99 95 88 89 88 87 84 82 78 76 84 92 95 95 97 96 93 91 91 89 76 48 18 6 7 8 8 14 15 14 18 27
100 99 96 88 77 78 84 87 94 99 99 98 98 96 97 100 100 100 100 100 98 99 100 100 98 98 97 92 82 60 32 10 6 6 7 7 8 8 8 9 12 20 34 49
100 100 98 95 94 96 100 100 100 100 100 100 100 100 100 100 100 100 100 100 100 100 99 97 90 73 46 23 10 6 6 7 8 8 8 8 9 9 10 14 24 40 59 65

GFSNW_500_rhum_030.txt.gz
RH
2 2 3 3 3 3 3 4 4 4 2 2 14 27 26 35 38 18 22 28 100 26 95 36 25 69 67 21 20 22 26 29 30 23 24 22 25 25 17 14 13 12 19 31
2 2 2 3 3 3 3 3 2 14 5 2 6 25 26 32 30 19 18 19 21 20 19 31 16 82 69 20 20 21 18 18 16 27 30 9 9 11 13 13 12 16 22 20
1 2 2 2 2 3 3 3 2 20 18 3 5 28 25 27 25 16 18 21 20 15 14 12 12 12 11 11 12 12 12 12 12 11 43 94 71 22 12 15 14 26 21 19
1 1 1 2 2 2 2 2 2 3 7 6 4 28 26 28 25 15 17 22 18 14 12 11 12 13 10 10 9 11 12 12 14 12 33 76 63 38 19 20 22 26 20 19
1 1 1 2 2 2 2 2 3 2 5 12 27 21 23 30 25 15 14 19 16 13 12 12 11 7 6 10 19 17 9 11 8 8 12 14 21 18 18 21 26 24 18 18
2 1 1 1 2 3 3 3 2 4 2 7 28 19 23 42 24 14 18 19 15 14 19 11 8 8 80 29 30 29 20 9 8 11 14 18 21 28 26 26 30 31 29 30
13 2 1 1 3 12 2 3 5 7 4 4 4 32 27 47 18 78 26 24 18 17 12 10 7 8 23 31 28 28 18 12 11 14 21 22 26 27 30 29 31 32 31 26
16 4 2 2 3 6 2 3 33 65 20 22 52 37 38 45 22 100 40 24 15 12 13 8 7 10 28 34 31 27 23 17 16 18 25 23 21 21 26 27 31 23 19 20
32 4 3 2 3 4 10 18 43 58 68 39 36 33 35 42 27 94 24 38 18 17 11 9 7 7 13 30 31 28 24 20 20 25 26 22 20 20 21 18 16 7 11 9
54 4 5 84 58 23 39 43 64 71 89 96 74 54 31 42 20 43 39 24 20 15 11 10 9 7 8 10 17 33 30 27 25 25 18 10 8 7 8 8 8 8 8 7
21 3 19 99 37 75 43 68 99 98 100 89 89 96 52 36 23 18 23 23 16 16 12 11 12 11 12 10 10 10 9 9 9 9 9 8 8 8 9 9 8 8 6 6
13 11 95 80 98 95 69 87 75 84 98 98 71 77 49 29 77 14 25 23 21 17 14 16 20 16 14 12 12 11 11 10 10 10 11 10 9 9 8 7 6 7 6 6
12 96 100 98 98 92 59 79 58 95 99 97 100 86 45 26 21 13 24 25 23 22 13 16 15 15 18 14 12 10 12 10 11 10 12 10 8 8 7 6 7 6 7 10
100 100 100 100 92 73 83 100 98 100 98 91 64 62 48 27 24 18 23 25 30 52 27 14 12 13 13 14 14 13 13 11 12 11 12 12 11 7 7 7 6 8 15 22
64 84 82 84 99 81 98 80 100 100 90 66 58 66 56 28 25 22 23 26 30 44 43 18 13 12 13 13 13 13 11 13 13 14 12 15 10 8 8 7 8 20 34 34
100 99 99 100 95 71 100 100 99 98 67 52 50 51 50 32 24 24 24 28 28 30 32 25 18 13 13 13 13 12 13 15 16 14 16 12 10 10 10 19 27 34 35 35
74 89 95 100 100 99 97 87 82 78 56 43 49 47 43 34 26 24 26 28 29 22 21 20 18 18 17 15 15 12 16 18 18 19 16 12 11 12 26 35 37 38 38 38
100 100 99 99 79 99 100 97 100 85 63 41 50 42 38 33 27 22 23 27 28 25 25 24 22 21 18 16 16 18 22 20 20 19 20 18 23 29 36 38 44 49 48 41
100 94 100 100 100 100 100 100 100 57 46 56 58 59 43 34 27 25 26 27 31 29 28 27 25 23 20 19 24 24 26 23 22 22 22 34 41 43 48 52 52 50 58 80
99 100 100 100 100 100 100 87 89 100 100 98 80 73 61 45 37 36 40 43 40 33 36 42 35 27 25 27 30 32 29 24 27 32 41 49 55 55 55 57 69 82 87 90
98 92 95 100 98 98 100 99 87 94 100 100 100 100 100 90 86 83 83 74 63 56 68 70 55 37 41 42 39 40 44 46 48 50 56 58 55 56 64 83 93 99 100 99
100 99 98 100 100 100 100 85 66 81 95 100 90 98 98 98 99 98 100 99 89 73 65 63 45 38 50 56 58 64 67 66 65 65 58 57 64 74 91 100 100 100 100 97
100 100 100 100 98 100 95 100 100 100 100 98 99 100 97 90 90 92 81 67 56 52 48 43 38 46 60 75 76 73 67 60 59 67 74 79 96 100 100 100 100 99 93 51
100 100 100 98 96 96 100 100 100 100 100 100 100 100 99 95 82 66 56 49 45 39 37 39 72 81 81 85 82 76 74 74 78 87 99 100 100 100 100 100 91 53 13 7
100 100 100 100 97 100 99 98 98 99 94 88 85 82 79 80 80 86 93 97 95 84 74 82 90 92 89 87 87 92 95 99 100 100 100 100 100 99 83 40 13 7 7 7
100 99 99 99 100 100 100 100 100 99 100 100 100 100 100 100 99 96 94 89 82 77 93 98 96 94 99 100 100 100 100 100 100 100 100 96 67 27 9 7 7 8 9 9
100 100 97 95 96 95 94 98 100 100 100 100 100 99 93 91 86 76 70 80 99 100 100 100 100 100 100 100 100 100 100 100 100 85 42 12 7 8 8 9 10 10 10 12

GFSNW_500_rhum_033.txt.gz
RH
3 5 6 5 4 6 6 15 18 8 4 20 31 40 22 19 46 46 38 38 33 17 24 90 47 26 87 94 63 83 70 50 59 68 25 35 33 29 50 27 28 17 11 20
2 3 4 5 4 4 5 7 11 8 6 11 37 30 11 20 41 39 34 32 24 20 48 100 55 44 85 99 93 23 26 21 25 40 35 41 25 18 13 11 9 10 12 22
2 2 2 3 3 3 3 4 5 6 5 9 21 28 6 10 38 35 35 28 24 21 29 90 91 31 44 35 31 21 22 21 22 21 15 13 18 42 34 12 10 12 20 27
1 2 2 2 2 2 3 3 4 6 12 11 14 19 4 16 36 31 35 22 15 16 21 58 33 18 16 11 11 12 11 10 11 12 12 12 21 77 33 31 15 13 31 28
1 1 2 2 2 2 3 3 4 4 8 8 6 10 4 15 35 31 37 22 14 16 21 16 14 12 10 11 13 9 8 9 10 8 10 11 9 33 16 18 27 26 29 31
1 1 1 2 2 2 2 2 4 4 4 6 10 9 6 13 35 32 41 23 14 19 19 18 13 10 12 10 12 9 16 22 18 12 11 8 9 16 23 32 35 38 35 32
5 1 1 1 2 2 2 2 4 5 4 6 8 15 17 17 34 31 44 36 18 18 18 16 13 12 11 8 74 32 22 28 27 18 9 10 14 18 26 34 34 32 29 26
18 2 2 1 1 2 2 2 3 4 4 5 3 9 36 31 37 35 41 29 25 29 20 32 55 13 7 7 40 41 38 49 26 18 11 13 19 23 28 30 29 28 27 26
15 3 2 2 1 2 2 2 3 4 6 4 10 5 39 44 41 51 47 26 78 37 25 30 22 10 8 8 21 30 24 23 24 18 16 16 23 23 21 24 20 18 19 14
98 53 4 2 2 2 2 2 2 4 36 28 58 22 15 44 56 43 43 65 66 26 20 14 14 9 8 8 15 30 28 22 21 20 17 18 18 20 22 18 10 9 9 9
100 100 50 2 2 2 3 3 2 3 32 77 62 68 58 70 48 32 40 76 94 58 30 48 14 11 9 7 10 12 19 24 25 24 20 14 10 8 8 9 9 9 9 8
97 68 22 2 2 2 3 14 8 6 61 100 91 75 45 44 41 30 43 81 92 46 28 19 14 16 12 12 10 10 9 9 9 10 10 10 9 8 8 8 9 9 7 7
100 81 6 2 2 20 4 46 54 52 89 100 99 79 52 89 74 42 63 44 98 43 33 22 19 17 13 14 14 11 10 11 12 12 11 10 9 8 8 9 11 9 8 8
92 47 3 2 6 41 100 56 58 42 92 100 92 79 78 46 29 39 45 57 91 38 32 20 20 21 21 23 23 18 13 12 13 14 12 11 10 9 9 10 10 9 9 9
30 6 2 15 88 76 47 53 76 99 100 98 97 87 87 70 63 84 98 44 35 30 32 23 20 20 20 22 17 17 16 14 15 14 14 13 13 14 15 16 14 10 10 11
4 2 59 100 100 84 59 50 87 99 100 99 100 88 82 94 100 100 85 100 48 25 32 28 26 28 27 21 17 16 15 14 14 15 13 12 13 17 20 17 14 13 15 23
6 87 91 100 88 54 90 93 100 100 100 100 99 99 99 100 98 84 56 40 28 19 29 36 38 41 48 36 21 19 17 14 16 16 14 15 18 22 19 18 18 18 24 37
97 87 92 78 75 51 100 100 100 97 99 91 85 80 94 94 80 60 45 35 23 22 23 28 33 31 31 31 27 23 19 20 20 22 22 20 20 22 23 21 22 32 42 49
64 76 85 95 97 96 98 100 100 98 96 95 91 71 64 66 56 53 46 35 31 24 23 29 33 29 26 22 21 24 23 22 25 28 29 28 26 24 23 25 36 47 58 58
73 86 99 99 99 99 88 80 79 95 82 75 61 57 53 50 59 46 41 43 33 30 23 26 25 26 29 27 28 32 31 30 33 35 34 37 33 30 38 49 54 61 60 57
54 76 44 51 47 96 100 95 100 93 77 64 56 49 62 60 56 54 48 48 43 37 32 33 28 30 35 40 52 61 61 55 48 44 41 41 44 54 66 67 65 61 64 75
68 72 90 96 100 99 72 76 64 55 47 47 51 77 79 86 79 68 70 74 74 69 66 65 54 54 69 84 94 91 78 62 53 50 57 65 75 75 67 65 73 84 98 100
100 100 100 100 97 92 74 74 76 79 92 86 84 99 100 100 100 99 99 98 98 93 82 84 93 100 100 99 89 76 68 65 67 88 86 86 80 76 79 92 100 100 100 100
97 95 98 91 99 88 84 83 94 90 95 100 96 94 98 100 100 94 82 77 85 90 93 90 90 89 84 73 67 84 92 91 93 89 88 90 96 100 100 100 100 100 100 100
100 95 95 81 92 93 99 100 94 97 95 94 98 100 100 100 99 98 94 94 85 81 77 70 66 73 92 100 100 96 94 100 98 99 100 100 100 100 100 100 100 98 74 28
100 97 96 95 99 98 97 100 100 100 100 100 99 95 95 95 96 92 90 84 76 79 94 99 99 98 94 96 100 98 100 100 100 100 100 100 100 100 100 95 68 32 12 8
100 99 100 100 100 100 100 100 100 98 100 100 100 100 99 98 100 100 100 100 100 100 97 93 89 96 100 100 100 100 100 100 100 100 100 100 100 83 42 22 10 9 10 11

GFSNW_500_rhum_036.txt.gz
RH
2 3 4 6 9 11 16 20 22 26 34 81 56 58 58 54 20 20 37 50 44 29 20 16 16 17 18 24 42 43 72 72 64 73 71 74 54 44 47 50 55 41 20 20
2 2 3 3 7 6 9 17 20 18 7 46 55 45 51 56 19 17 30 42 44 39 27 16 15 11 25 29 26 40 61 77 75 61 80 38 35 29 28 29 39 25 17 13
6 2 2 3 3 7 5 8 10 16 12 27 50 52 42 40 22 15 27 38 38 38 29 16 22 20 16 26 75 86 57 39 23 28 38 40 25 41 50 33 15 10 10 16
20 2 2 2 3 4 5 5 6 17 22 27 35 47 45 34 13 13 34 42 43 50 22 22 20 77 26 36 72 86 68 26 21 21 23 16 13 10 18 44 45 30 22 16
24 9 2 2 2 3 5 5 6 9 16 11 21 36 38 38 8 14 17 30 42 56 24 35 19 26 18 18 34 29 20 18 15 11 11 11 12 11 11 11 42 22 29 29
27 8 2 2 2 3 4 4 5 6 8 10 14 28 31 31 7 11 29 33 45 56 24 29 28 16 20 23 19 17 15 14 11 9 8 10 10 9 8 15 20 24 25 25
26 9 3 2 2 3 3 4 5 6 6 8 16 17 27 10 7 16 38 41 46 50 32 15 34 23 16 14 12 18 20 20 20 19 24 22 17 14 10 13 19 30 33 35
31 17 2 1 2 3 3 4 4 6 6 7 10 14 14 7 9 19 42 38 44 49 26 21 20 35 18 14 23 24 24 85 46 32 30 26 21 12 12 22 30 31 34 37
28 31 2 1 2 2 3 3 3 4 5 6 8 10 10 9 7 36 34 50 58 62 53 36 19 37 24 39 31 14 14 43 40 38 40 31 21 13 19 29 28 29 28 28
27 38 13 2 2 2 3 3 3 3 4 4 5 8 7 30 16 35 38 72 44 47 49 64 30 30 40 46 12 8 10 22 31 28 22 20 19 19 18 24 26 28 28 24
43 41 32 2 2 2 2 3 3 3 4 6 6 12 11 21 25 14 22 49 35 57 54 45 27 33 34 27 10 9 10 17 26 29 25 20 23 23 22 26 20 13 14 13
33 32 25 2 2 2 2 2 2 2 4 7 49 40 15 9 37 26 29 39 42 51 77 44 45 30 27 15 10 9 9 11 13 16 17 16 14 12 11 12 14 13 11 10
97 100 59 8 2 2 2 2 2 4 36 45 52 64 33 8 20 39 34 43 61 58 68 100 94 42 37 22 13 11 11 11 11 12 11 10 10 11 11 13 13 12 11 10
99 96 100 53 2 2 2 4 3 9 88 99 97 74 45 23 13 29 38 76 82 55 97 99 97 71 43 34 19 14 12 14 14 12 13 14 14 13 12 12 12 12 12 11
100 100 91 28 2 2 2 14 19 8 68 50 98 95 76 54 31 19 53 76 76 62 70 95 70 53 46 32 23 16 15 18 20 18 17 17 16 14 12 11 10 10 10 14
92 62 46 4 1 2 7 100 100 53 15 88 94 85 100 89 79 42 84 75 73 64 54 85 98 60 46 35 22 19 24 25 20 20 19 19 18 18 16 15 15 16 18 19
92 37 12 1 1 3 26 33 35 70 64 81 74 72 81 100 87 91 97 96 62 65 63 66 100 93 51 32 24 21 21 21 24 28 25 22 21 20 20 20 20 21 24 25
35 8 2 1 2 86 100 71 70 84 56 99 94 84 97 92 95 96 90 86 79 96 92 84 80 79 48 36 28 29 30 36 43 43 36 28 23 21 23 24 25 29 29 30
2 1 1 9 26 69 95 98 100 91 100 100 97 99 100 96 88 86 87 96 96 100 97 97 90 56 40 32 36 43 41 37 32 28 26 25 26 28 32 34 36 36 37 39
5 67 99 95 93 96 99 100 100 100 100 100 98 99 100 97 96 96 95 100 94 76 67 59 53 41 30 27 31 32 36 35 34 40 49 42 38 46 48 49 49 46 50 60
94 100 100 100 100 100 100 100 100 100 98 76 65 65 67 83 94 95 97 87 69 55 49 53 47 39 38 38 37 39 46 57 63 73 71 69 75 76 70 60 57 66 78 82
100 98 97 98 98 100 98 97 85 78 82 60 44 50 56 58 56 59 60 57 56 54 52 61 51 40 45 53 64 75 83 91 92 96 97 94 88 80 70 69 83 92 89 89
100 100 100 100 91 96 97 92 81 68 82 94 85 76 68 63 66 58 64 78 74 69 77 74 72 78 83 86 98 93 85 89 98 98 98 94 78 82 96 96 93 94 99 100
89 97 100 100 100 100 100 100 100 98 100 84 82 63 68 86 93 91 94 93 96 96 89 90 99 100 100 100 100 100 100 99 96 94 96 100 100 99 97 98 100 100 100 100
92 88 82 92 100 100 100 100 99 89 86 88 83 97 97 100 100 99 99 100 96 85 83 98 100 100 100 99 97 97 98 100 100 100 100 100 100 100 100 100 100 100 100 100
100 100 100 100 100 100 100 100 92 83 73 79 74 86 98 96 85 76 80 75 74 90 100 100 98 96 97 100 100 100 100 100 100 100 100 100 100 100 100 100 100 100 100 100
99 95 95 94 98 94 93 95 96 93 97 99 99 100 100 100 100 100 100 100 100 100 96 98 100 100 100 100 97 97 100 100 99 99 100 100 100 100 100 100 100 99 84 38

GFSNW_500_rhum_042.txt.gz
RH
56 41 25 5 4 5 7 13 20 32 11 18 67 53 50 54 62 91 74 89 95 70 50 44 39 37 25 26 25 24 36 36 54 63 83 87 76 63 62 62 62 76 65 48
90 50 36 16 4 4 5 9 18 19 13 8 47 52 58 61 85 92 82 61 74 86 59 44 38 38 27 34 32 27 35 34 36 53 78 84 78 76 61 68 76 65 27 19
100 64 40 27 8 4 5 6 11 8 19 32 41 45 52 56 73 72 66 48 54 51 44 39 43 41 28 22 33 33 33 31 36 35 44 81 75 72 69 44 33 28 31 37
100 85 54 40 19 4 4 6 8 14 22 25 26 34 39 52 73 70 43 48 49 35 35 41 43 47 38 22 22 32 44 25 32 48 57 73 68 68 66 63 66 42 31 16
100 100 78 58 46 8 4 4 6 10 20 19 23 26 24 38 63 69 49 55 34 29 34 44 55 67 60 31 23 35 30 32 36 55 52 43 33 43 52 63 45 19 16 8
100 100 95 80 62 31 5 3 4 7 13 19 19 16 20 30 55 73 53 17 21 36 55 76 67 69 67 45 29 29 27 22 52 69 74 65 22 19 23 21 12 10 8 10
100 100 100 86 46 27 12 3 4 5 8 14 20 17 18 21 38 61 71 51 40 67 100 89 52 71 70 73 46 32 87 89 37 40 33 20 12 11 13 12 11 11 10 11
100 100 100 75 45 40 29 9 3 4 6 10 18 19 17 17 18 49 96 90 44 85 100 100 54 80 71 92 63 32 66 78 41 26 18 11 8 13 30 45 38 26 23 24
100 100 100 79 85 71 37 12 3 3 4 7 12 18 18 18 18 17 96 88 70 95 99 99 68 61 86 98 61 48 36 40 49 31 17 10 12 16 42 38 18 32 26 22
100 100 100 96 98 50 35 14 4 3 4 5 10 13 15 18 19 19 31 60 43 45 68 97 72 78 87 99 60 57 41 24 31 28 16 12 18 11 10 21 26 28 28 21
100 100 100 100 70 46 34 21 6 3 3 4 7 10 12 17 19 19 18 14 39 19 26 58 73 74 87 100 75 52 44 40 45 40 24 22 16 8 14 25 22 24 24 20
100 100 100 92 47 40 36 23 14 3 3 3 5 8 10 13 18 16 15 20 27 27 19 28 52 82 81 86 68 56 46 31 37 44 35 35 10 10 16 25 27 24 24 24
100 100 99 83 47 41 38 29 18 7 2 2 4 5 7 10 14 14 14 13 29 27 24 34 53 66 73 54 62 74 58 38 38 45 44 37 10 11 12 12 14 15 15 15
100 100 86 60 50 42 37 34 22 12 3 2 3 4 6 7 7 12 12 10 13 19 20 28 44 50 57 67 80 97 74 63 49 36 40 26 15 14 14 15 15 16 18 19
95 76 56 45 38 25 24 51 100 83 19 6 3 4 5 9 15 8 9 9 9 10 40 40 30 38 55 76 90 84 91 87 66 44 57 26 18 17 18 20 20 21 21 20
85 79 71 53 35 26 21 78 100 100 98 23 4 20 14 15 25 17 9 10 9 10 24 44 72 54 47 70 75 93 98 98 100 91 66 52 40 29 24 26 29 27 25 24
31 35 36 34 32 28 23 93 100 100 100 73 19 52 15 16 54 45 24 13 12 31 15 11 37 68 69 97 80 98 86 97 100 100 83 61 58 47 34 30 31 31 28 26
28 27 40 43 35 51 86 91 100 99 100 100 100 56 38 74 86 78 63 35 18 25 31 31 54 75 75 75 85 89 100 100 99 96 98 100 88 63 59 51 43 39 41 44
31 22 21 26 35 52 52 82 97 100 98 52 98 79 44 25 99 100 95 75 78 58 25 29 46 58 45 57 76 76 87 77 89 99 100 87 98 71 65 63 64 60 57 48
100 100 100 95 84 100 100 100 100 100 94 32 9 18 100 45 67 100 96 98 81 71 50 40 50 36 53 64 73 94 100 93 84 74 83 100 100 83 69 78 73 68 64 100
100 100 100 58 75 90 96 100 100 93 53 64 98 100 99 97 86 79 91 94 97 89 68 60 53 46 66 74 93 100 98 99 100 100 95 99 97 92 91 73 67 76 100 98
58 57 21 50 99 85 69 66 89 65 37 88 100 99 96 100 98 100 100 92 95 98 89 89 79 69 83 99 99 99 99 99 99 98 99 97 81 68 58 58 66 96 100 100
100 100 100 97 84 94 62 50 80 100 75 69 83 76 100 90 97 100 100 100 100 99 100 96 99 100 100 100 99 97 96 88 84 82 80 69 66 68 71 99 100 99 94 99
85 97 92 98 100 100 94 100 100 100 100 56 10 41 89 100 99 86 100 100 97 99 99 100 100 100 100 99 98 96 84 72 72 82 89 95 100 100 100 98 100 100 100 100
84 84 99 83 77 85 100 100 100 100 100 100 99 98 100 100 99 98 93 91 88 94 91 77 66 60 62 68 74 82 89 94 100 100 100 100 98 98 100 98 95 95 99 100
100 100 100 100 100 100 100 99 95 99 90 82 72 76 80 83 74 68 68 65 61 63 78 95 94 97 97 96 100 98 96 91 93 100 100 100 100 95 97 100 100 100 100 100
99 100 100 100 100 98 95 95 92 91 95 94 87 81 92 79 75 78 74 73 89 100 100 100 100 100 100 100 100 100 100 100 100 100 97 96 100 100 100 100 100 100 100 100

GFSNW_500_rhum_045.txt.gz
RH
68 72 62 100 52 25 20 5 7 7 10 19 42 36 34 49 59 76 80 85 96 96 89 55 51 48 45 40 30 18 20 26 32 50 84 100 100 91 81 81 71 63 56 50
82 79 69 73 97 28 28 7 5 8 9 12 27 25 34 46 60 67 63 83 96 97 98 76 55 53 48 41 31 19 19 19 27 39 58 78 95 89 85 75 71 59 59 51
100 83 63 55 100 52 27 23 6 7 12 10 20 28 27 38 58 70 56 74 97 98 97 92 66 56 51 42 31 22 19 19 23 29 39 67 80 90 95 80 60 46 47 30
50 100 84 81 100 87 44 31 13 5 8 10 16 20 25 39 56 74 56 55 94 97 96 98 91 84 70 43 35 27 27 20 22 23 40 48 63 80 72 61 56 54 48 40
68 100 100 100 100 100 57 30 20 5 6 9 13 19 13 25 48 76 75 67 100 62 68 89 96 99 88 50 35 36 49 27 22 21 30 46 44 44 56 50 42 41 44 35
82 100 100 100 100 100 52 28 24 10 5 8 10 17 16 19 41 64 86 97 94 56 59 83 97 99 97 67 46 39 36 27 21 20 28 46 31 35 37 31 22 21 14 10
71 100 100 100 100 92 56 30 30 13 4 6 10 15 21 23 35 38 73 93 81 23 18 76 99 97 94 69 74 58 38 27 20 31 34 35 37 56 36 18 12 12 13 26
85 100 100 100 100 100 57 44 38 16 5 5 8 13 18 24 31 23 33 79 93 44 29 88 89 100 85 72 68 86 70 38 28 40 45 21 25 29 23 14 13 15 40 31
100 100 100 100 100 100 59 65 60 21 10 4 6 11 16 20 24 25 19 25 99 94 67 47 93 95 97 85 81 90 82 64 67 48 58 34 18 24 14 17 12 13 16 19
100 100 100 100 100 100 97 94 56 29 7 4 5 9 14 16 18 19 17 12 92 96 87 80 62 100 99 77 70 84 81 77 62 40 24 21 22 17 17 23 11 9 14 20
100 100 100 100 100 100 100 86 51 25 8 4 4 6 11 15 16 14 13 8 42 93 81 81 81 69 89 100 79 75 94 91 71 61 39 16 32 23 28 22 8 9 16 20
100 100 100 100 100 100 99 82 46 26 14 49 5 5 8 12 14 13 11 9 10 52 92 74 70 75 77 96 99 74 80 92 91 65 56 38 40 40 50 18 9 9 12 19
100 100 100 100 100 100 81 65 44 25 15 100 77 10 4 7 10 14 15 13 12 37 80 78 69 64 66 83 95 90 86 99 97 98 86 59 34 46 56 18 9 9 10 11
100 100 100 100 100 100 83 53 31 26 21 48 70 96 40 27 11 11 15 16 14 16 37 61 58 54 46 56 78 96 88 95 99 91 85 47 36 44 49 28 11 12 13 14
100 100 100 100 100 99 64 44 30 27 50 40 100 69 98 65 51 24 10 13 16 14 19 32 32 41 40 32 30 51 68 79 95 93 100 80 60 49 41 32 18 17 18 19
98 100 100 100 100 78 46 43 36 29 21 34 47 60 52 83 36 52 37 12 11 14 14 15 19 19 40 48 39 40 49 64 87 88 100 99 98 50 42 49 31 26 24 22
100 100 100 100 78 56 44 30 49 43 34 67 45 25 28 54 67 29 23 40 11 12 14 14 12 14 54 66 52 30 31 40 69 91 92 99 100 100 97 72 69 65 44 33
97 84 75 61 42 32 26 34 47 66 70 65 65 20 9 21 60 47 24 44 33 10 12 12 12 11 15 35 49 66 47 61 64 62 97 98 99 99 100 92 82 81 89 78
69 86 79 69 53 34 34 51 89 85 99 96 47 54 42 51 17 22 23 17 19 21 13 10 11 11 16 25 22 22 57 64 80 99 99 98 96 81 83 91 100 100 98 93
22 30 41 43 38 35 34 36 72 100 100 100 100 96 94 68 28 43 93 60 57 28 22 19 17 17 16 24 25 21 34 82 89 94 91 90 97 100 100 95 100 99 100 98
70 52 43 40 35 43 44 74 100 100 100 100 100 61 64 36 36 99 99 100 100 90 55 53 46 51 44 29 24 31 48 55 57 60 72 90 97 100 100 98 100 100 100 100
100 60 38 30 57 67 58 82 100 98 100 100 100 100 90 67 58 85 99 78 79 100 100 100 70 55 62 65 47 46 58 69 72 91 81 97 100 100 100 100 99 100 100 90
70 87 84 89 90 81 82 96 100 95 68 40 38 34 30 67 79 56 56 41 70 100 100 93 74 83 98 100 99 74 66 75 97 100 100 99 100 100 99 99 97 91 92 94
64 72 67 67 71 86 96 80 66 82 75 66 34 25 100 100 100 96 100 100 99 100 99 92 100 100 100 100 100 100 100 99 100 100 98 88 81 89 94 100 99 97 99 100
93 99 100 100 100 90 96 100 100 98 94 78 77 68 62 82 75 63 70 72 77 93 100 100 100 99 98 96 92 67 54 62 77 78 76 89 99 100 100 100 100 100 100 98
100 100 100 100 100 100 100 100 100 100 100 97 77 95 93 95 93 93 95 98 100 98 97 100 96 91 98 96 91 95 92 76 80 97 100 100 100 100 100 100 100 100 100 100
100 100 100 100 100 100 100 100 100 100 100 100 98 93 89 87 78 75 80 74 71 70 72 79 93 100 100 100 100 100 100 100 100 100 100 100 100 100 100 100 100 100 97 96

GFSNW_500_rhum_048.txt.gz
RH
46 81 72 75 81 77 99 97 42 19 7 11 12 14 10 17 26 36 64 69 74 86 100 99 100 94 56 46 40 34 26 20 20 30 34 37 52 79 87 91 87 66 70 58
79 69 61 69 57 85 78 93 70 37 18 6 10 10 16 18 23 41 67 76 83 93 94 100 100 98 66 60 47 38 30 25 22 27 31 34 36 57 80 89 87 62 68 62
96 96 76 56 71 100 96 86 100 61 42 8 7 8 15 22 21 40 58 74 87 99 99 100 96 94 77 73 49 42 34 31 27 22 30 46 44 58 89 100 91 76 57 60
69 70 71 52 46 100 100 90 99 62 23 15 5 7 10 20 26 33 50 65 78 92 89 99 100 98 91 78 62 45 32 29 25 23 32 36 31 49 76 88 70 57 52 53
100 92 100 75 46 98 100 100 81 68 29 28 9 6 8 14 28 37 43 59 68 68 81 100 98 100 99 96 88 49 33 32 27 23 23 26 28 31 38 47 52 59 48 36
100 100 93 77 53 98 100 100 88 74 37 27 17 6 7 11 20 34 44 60 66 63 63 100 95 98 98 96 86 52 38 37 32 23 22 30 12 16 31 34 40 38 22 23
100 100 100 99 64 100 98 96 81 74 60 39 16 6 6 8 13 26 38 51 87 98 24 96 98 100 100 99 99 78 48 41 37 33 28 22 15 18 41 40 36 35 19 16
100 100 100 95 81 100 94 98 89 87 75 32 24 8 5 7 9 12 23 41 50 100 47 94 92 99 100 100 96 87 53 54 50 44 22 22 11 18 51 56 22 24 20 16
100 100 99 80 100 100 92 100 100 100 80 37 37 15 5 6 8 10 17 20 37 99 96 99 76 95 100 98 100 94 85 76 68 56 35 18 14 26 34 43 15 44 20 11
100 95 84 98 100 100 81 100 100 100 70 52 37 21 5 6 8 13 14 18 24 88 99 77 43 72 85 99 87 88 91 100 79 72 56 34 24 31 65 38 20 21 18 9
83 83 95 100 100 92 97 100 100 100 65 41 35 51 9 6 18 45 12 13 17 86 95 84 39 44 82 94 100 83 80 92 86 99 80 44 42 45 28 33 25 23 19 8
89 98 100 89 100 98 100 100 97 66 51 40 32 42 46 22 19 45 11 17 18 72 81 95 75 55 56 84 95 100 98 95 89 63 60 74 72 57 38 37 40 36 28 9
100 98 96 100 100 100 100 100 86 77 47 60 45 40 43 90 60 10 17 12 16 26 46 50 96 83 65 57 64 76 98 100 85 84 91 89 100 78 67 44 40 42 38 10
100 100 100 100 100 99 100 100 100 74 58 45 70 90 27 39 36 10 10 12 12 12 11 27 78 83 77 70 69 70 98 98 87 79 79 92 98 96 85 61 37 38 45 20
100 100 100 100 98 100 100 100 99 87 37 33 100 100 52 30 30 17 7 11 12 18 10 14 35 44 59 76 78 59 75 86 83 81 97 100 98 98 83 48 32 30 29 33
99 98 95 96 100 100 100 95 76 32 61 100 100 100 76 99 94 44 9 8 13 13 15 18 12 15 31 51 57 57 55 69 96 95 100 98 100 99 98 81 69 46 41 41
100 100 100 100 100 100 90 46 41 31 47 100 100 100 97 89 95 99 40 12 9 13 14 15 26 40 20 30 43 47 53 75 44 59 90 86 96 92 98 96 100 99 94 94
100 100 100 95 92 72 46 42 42 42 28 70 98 100 100 100 95 78 48 49 31 33 20 15 16 17 16 20 21 27 38 79 90 68 37 46 83 85 87 88 97 99 94 96
94 90 87 99 61 50 44 30 33 43 41 83 87 70 81 92 77 72 70 42 26 42 26 16 15 15 18 17 16 16 20 26 29 49 71 39 32 57 57 69 99 98 98 98
98 96 80 54 36 31 32 35 40 50 86 69 66 100 100 84 76 75 62 59 33 32 51 46 23 18 17 16 15 13 14 16 18 20 18 43 70 60 56 92 98 96 94 95
82 61 41 40 31 33 34 35 61 92 100 100 100 69 50 60 72 48 26 24 23 21 22 30 30 27 20 17 14 15 16 18 22 29 31 21 24 67 82 81 74 78 81 100
74 70 56 46 33 26 27 47 64 98 98 100 90 92 98 89 93 58 40 85 100 99 76 82 67 61 44 34 34 48 58 48 41 35 30 31 36 47 48 56 74 81 88 95
32 38 32 27 25 26 70 94 100 100 100 100 100 100 100 100 64 55 86 86 90 93 90 86 96 81 85 92 83 80 87 87 84 76 46 36 61 81 81 95 92 98 100 100
37 35 24 26 55 72 95 100 100 100 100 99 84 87 100 100 89 92 97 99 99 85 85 90 100 92 90 94 95 88 99 99 96 98 100 100 100 100 87 81 98 98 99 99
49 48 58 55 68 66 86 70 97 100 100 58 87 59 100 100 94 40 55 92 94 64 72 96 98 92 95 100 100 100 100 100 100 100 99 100 100 99 98 98 95 100 99 100
100 98 99 100 93 84 64 89 100 93 91 96 100 100 95 99 82 72 60 66 75 88 82 78 95 100 98 99 96 94 94 92 86 88 93 87 94 100 100 100 100 100 100 100
100 100 100 100 100 100 100 100 100 100 100 100 100 100 100 100 94 86 79 89 86 84 90 92 85 84 94 100 100 100 98 95 100 100 98 100 100 100 100 100 100 100 100 100